User: anonymous   Login
Location: Croydon
(51.3762°N, 0.0982°W)
Time: 04:31:09
(UTC+00:00)
Language:

ESTCUBE 1 - Orbit

View from above orbital plane
View from above orbital plane
View from above satellite
View from above satellite

Ground track
Ground track

The orbit data is extracted from the following two-line orbital elements,

1 39161U 13021C   19322.71295567  .00000195  00000-0  38660-4 0  9998
2 39161  97.9809  44.8543 0009160 189.7903 170.3120 14.72250880350880
Epoch (UTC): 18 November 2019 17:06:39
Eccentricity: 0.0009160
inclination: 97.9809°
perigee height: 647 km
apogee height: 660 km
right ascension of ascending node: 44.8543°
argument of perigee: 189.7903°
revolutions per day: 14.72250880
mean anomaly at epoch: 170.3120°
orbit number at epoch: 35088

The dashed part of the orbit path shows where the satellite is in the earth's shadow,  

DLR